Lid_Strength_Index
4 4 4 4 4 5 4 4 4 4 4 4 4 4 4 4 5 4 3 3 4 3 3 2 1 1 3 4 4 -0 -2 -1 -0 3 5 4 5 5 7 5 5 6 5 4 4 4 4
4 4 4 4 5 4 5 5 5 5 5 5 4 5 4 4 4 4 4 4 4 3 3 2 1 1 3 7 0 -1 0 1 2 4 4 3 4 4 5 5 6 5 5 5 4 4 4
4 4 4 4 4 4 5 5 5 5 5 5 5 5 5 4 5 4 4 4 4 4 3 2 1 1 4 5 0 -0 0 2 2 2 3 3 3 4 4 5 4 5 6 5 5 5 5
4 4 4 4 4 4 5 5 5 5 5 5 5 5 5 4 5 5 4 4 4 4 2 2 1 2 5 1 1 0 1 1 0 1 2 2 2 4 5 4 5 6 6 9 6 5 5
4 4 4 4 4 4 4 5 5 5 5 5 5 5 5 5 5 5 4 5 4 3 3 2 3 3 5 1 3 0 0 3 2 2 2 2 3 5 5 7 8 7 10 9 8 5 6
3 4 4 4 3 4 4 4 5 4 5 5 5 5 5 5 5 5 5 5 4 4 3 2 2 5 3 4 2 1 0 2 4 3 3 4 4 6 6 8 11 10 9 8 9 7 6
3 3 3 3 3 3 4 4 4 4 4 5 5 5 5 5 5 5 5 4 5 5 4 5 5 6 5 2 1 2 1 2 3 4 7 5 7 9 7 6 7 7 8 9 7 6 7
3 3 3 3 3 3 4 4 3 3 3 3 3 3 3 3 3 4 5 6 6 4 7 3 3 4 3 2 4 3 1 4 5 7 6 7 9 6 6 6 7 7 9 9 7 6 7
2 3 3 2 3 3 3 3 3 2 2 2 3 3 3 3 4 5 6 5 4 4 8 7 4 4 5 4 5 4 3 4 6 7 7 8 7 5 6 7 8 8 9 9 9 7 7
2 2 2 3 3 3 3 2 2 2 2 2 3 3 3 3 5 3 5 3 3 3 10 8 7 6 5 5 7 3 2 4 5 7 6 7 5 7 7 8 7 9 7 7 8 9 11
2 2 2 3 3 3 2 2 2 2 2 2 3 3 3 4 4 4 3 3 2 3 17 7 7 3 5 8 7 5 2 4 7 7 6 8 7 7 8 8 6 8 6 7 8 9 9
2 2 2 3 2 2 2 2 2 2 2 2 2 3 3 2 4 3 1 2 3 11 17 9 6 7 7 7 7 6 6 4 4 6 6 7 5 6 7 6 6 6 7 7 8 9 13
2 2 2 2 2 2 2 2 2 2 2 2 3 3 4 1 2 0 2 3 11 15 7 9 8 6 7 8 7 7 8 9 11 12 11 8 7 6 5 7 6 7 9 12 13 13 14
2 1 1 1 2 2 2 1 2 2 2 3 4 4 2 1 -0 0 1 7 15 9 8 6 7 7 8 7 7 7 7 9 8 9 11 12 13 8 6 8 9 9 9 12 16 15 13
2 1 1 1 1 1 1 1 2 2 2 3 5 1 1 -0 -1 0 5 12 12 9 7 7 7 9 8 7 8 7 8 8 7 7 10 11 11 7 6 6 7 10 11 8 12 11 14
2 1 1 1 1 1 1 1 1 2 2 4 4 2 2 -1 -1 2 7 11 8 6 6 7 10 8 10 10 10 10 10 7 8 6 6 9 13 8 7 6 6 8 7 12 12 17 18
1 1 1 1 1 1 1 1 1 2 3 4 2 5 1 -1 -0 5 10 9 7 5 5 7 9 9 9 9 9 10 10 8 7 7 6 8 10 11 8 10 10 9 10 9 10 12 19
1 1 1 0 0 0 0 1 1 2 4 3 3 7 1 -0 7 6 8 7 8 6 5 6 6 7 8 8 9 9 10 9 6 6 9 8 10 13 11 7 6 8 10 10 16 16 13
1 1 1 0 0 0 0 1 1 2 3 4 5 4 1 1 10 11 7 6 6 7 6 7 7 7 6 9 11 9 8 7 6 7 9 8 12 15 13 9 8 9 10 10 10 12 15
0 1 1 0 0 0 0 1 1 1 3 4 4 7 4 3 4 7 8 7 8 5 6 6 7 6 8 9 8 10 9 7 6 7 7 7 10 13 16 12 10 13 12 11 13 17 16
1 1 1 0 0 0 0 0 1 1 3 4 4 6 5 8 7 7 6 7 8 8 6 5 7 8 9 11 10 10 9 8 7 7 7 8 13 11 10 9 9 10 11 10 12 12 15
1 1 1 1 0 0 0 0 0 1 4 3 5 6 4 6 6 7 7 8 8 8 7 8 8 8 8 10 10 11 9 9 10 8 8 8 13 11 12 10 10 11 10 9 10 10 10
1 1 1 1 0 0 0 0 0 1 4 3 2 2 4 6 6 7 7 7 7 6 6 6 7 8 8 8 6 6 6 6 7 9 10 11 12 13 16 11 12 14 10 10 9 9 9
2 1 1 1 1 0 0 0 -0 1 4 4 3 3 6 8 6 7 6 6 7 6 7 6 6 7 5 3 4 5 6 6 7 8 7 11 12 13 16 12 19 10 7 7 9 8 7
2 2 2 1 1 1 0 0 0 0 2 3 2 3 5 8 6 6 6 6 6 5 7 6 5 4 3 5 9 11 10 10 9 8 8 9 11 15 16 15 12 10 9 10 12 10 8
3 3 2 2 1 1 1 -0 -0 1 2 3 1 0 3 7 7 5 6 6 8 7 7 6 4 3 4 7 10 14 15 14 15 13 8 9 10 13 14 19 18 12 8 6 6 12 7
2 2 2 2 1 1 0 0 -0 1 2 3 2 -1 3 6 4 4 7 8 6 6 8 6 6 6 4 9 12 13 14 11 15 16 14 14 13 16 16 17 13 9 7 6 14 13 7
2 2 2 2 3 1 1 0 -0 0 2 3 1 -1 3 5 4 4 4 6 6 6 9 6 7 7 8 11 11 12 13 12 12 11 12 14 15 15 14 16 17 7 7 11 9 6 5
2 2 2 2 2 2 2 0 -0 -0 2 3 3 0 1 4 4 2 2 2 3 3 5 5 7 7 7 10 10 9 12 10 11 15 9 14 11 14 13 13 8 6 7 5 4 5 5